Location: Gro�wechsungen
(51.4926°N, 10.6901°E)
Time: 08:43:08
(UTC+00:00)

SPOT 3 Rocket - Pass Details

Date: 28 January 2021
Orbit: 780 x 794 km, 98.7° (Epoch: 24 February)

Event Time Altitude Azimuth Distance (km) Brightness Sun altitude
Exits shadow 17:44:12 12° 32° (NNE) 2,197 5.5 -16.1°
Drops below altitude 10° 17:45:13 10° 21° (NNE) 2,350 5.7 -16.3°
Sets 17:48:44 0° 356° (N) 3,286 6.7 -16.8°
